This is the latest recevied weather packets stored in our database for station/object KA1JKB. If no packets are shown the sender has not sent any weather packets the latest 10 day(s).
| Time | Temp. | Humidity | Pressure | Rain* | Wind** | Luminosity | Snow |
|---|---|---|---|---|---|---|---|
| 1787876679 | 20° C | 84% | 1013.3 hPa | 0 mm | - | 0 W/m² | - |
| 1787876374 | 20° C | 83% | 1013.1 hPa | 0 mm | - | 2 W/m² | - |
| 1787876072 | 20.56° C | 82% | 1013.1 hPa | 0 mm | - | 3 W/m² | - |
| 1787875767 | 20.56° C | 81% | 1013 hPa | 0 mm | - | 6 W/m² | - |
| 1787875467 | 21.11° C | 81% | 1013.1 hPa | 0 mm | - | 10 W/m² | - |
| 1787875165 | 21.67° C | 80% | 1012.8 hPa | 0 mm | - | 13 W/m² | - |
| 1787874860 | 21.67° C | 78% | 1013 hPa | 0 mm | - | 17 W/m² | - |
| 1787874560 | 22.22° C | 77% | 1013.1 hPa | 0 mm | - | 22 W/m² | - |
| 1787874254 | 22.78° C | 75% | 1012.9 hPa | 0 mm | - | 25 W/m² | - |
| 1787873949 | 23.33° C | 73% | 1012.8 hPa | 0 mm | - | 28 W/m² | - |
| 1787873649 | 23.89° C | 71% | 1012.8 hPa | 0 mm | - | 31 W/m² | - |
| 1787873344 | 24.44° C | 69% | 1013 hPa | 0 mm | - | 33 W/m² | - |
| 1787873042 | 25° C | 68% | 1012.7 hPa | 0 mm | - | 38 W/m² | - |
| 1787872738 | 25.56° C | 65% | 1012.7 hPa | 0 mm | - | 67 W/m² | - |
| 1787872434 | 26.11° C | 64% | 1012.9 hPa | 0 mm | - | 44 W/m² | - |
| 1787872134 | 26.11° C | 64% | 1012.7 hPa | 0 mm | - | 84 W/m² | - |
| 1787871833 | 26.11° C | 63% | 1012.7 hPa | 0 mm | - | 60 W/m² | - |
| 1787871528 | 26.11° C | 62% | 1012.7 hPa | 0 mm | - | 110 W/m² | - |
| 1787871224 | 26.11° C | 62% | 1012.5 hPa | 0 mm | - | 133 W/m² | - |
| 1787870918 | 26.11° C | 60% | 1012.7 hPa | 0 mm | - | 146 W/m² | - |
| 1787870613 | 26.67° C | 60% | 1012.6 hPa | 0 mm | - | 170 W/m² | - |
| 1787870308 | 26.67° C | 61% | 1012.4 hPa | 0 mm | - | 183 W/m² | - |
| 1787870003 | 26.11° C | 63% | 1012.7 hPa | 0 mm | - | 190 W/m² | - |
| 1787869703 | 26.11° C | 62% | 1012.6 hPa | 0 mm | - | 184 W/m² | - |
| 1787869402 | 26.67° C | 61% | 1012.6 hPa | 0 mm | - | 229 W/m² | - |
* Rain latest hour (hover to see other rain measurements)
** Current wind speed in m/s (hover to see current wind gust speed)